Fairfield, IL

8:27 PM CST on December 15, 2019 (GMT -0600)
Fairfield Municipal

Weather History for KFWC - October, 2019

Change the Weather History Date:

Saturday, October 26, 2019

  Actual Average (KEVV) Record (KEVV)
Temperature  
Mean Temperature 58 °F -  
Max Temperature 67 °F 66 °F 87 °F (1940)
Min Temperature 49 °F 40 °F 23 °F (1962)
Degree Days  
Heating Degree Days 7    
Growing Degree Days 8 (Base 50)    
Moisture  
Dew Point 52 °F    
Average Humidity 97    
Maximum Humidity 100    
Minimum Humidity 82    
Precipitation  
Precipitation 2.29 in - - ()
Sea Level Pressure  
Sea Level Pressure 29.71 in    
Wind  
Wind Speed 7 mph ()    
Max Wind Speed 15 mph    
Max Gust Speed 22 mph    
Visibility 7.1 miles    
Events Rain    
Averages and records for this station are not official NWS values.
T = Trace of Precipitation, MM = Missing Value Source: Averaged Metar Reports

Daily Weather History Graph

Daily Weather History Graph

Search for Another Location

Airport or City:

Astronomy

Oct. 26, 2019 Rise Set
Actual Time 7:13 AM CDT 6:01 PM CDT
Civil Twilight 6:46 AM CDT 6:28 PM CDT
Nautical Twilight 6:15 AM CDT 6:59 PM CDT
Astronomical Twilight 5:44 AM CDT 7:29 PM CDT
Moon 5:11 AM CDT (10/26) 5:34 PM CDT (10/26)
Length of Visible Light 11h 41m
Length of Day
10h 47m
Waning Crescent, 3% of the Moon is Illuminated
Oct 26
Waning Crescent
Oct 27
New
Nov 4
First Quarter
Nov 12
Full
Nov 19
Last Quarter

Hourly Weather History & Observations

Time (CDT) Temp. Dew Point Humidity Pressure Visibility Wind Dir Wind Speed Gust Speed Precip Events Conditions
12:15 AM 51.1 °F 46.0 °F 83% 30.09 in 10.0 mi NNE 4.6 mph - N/A   Clear
12:35 AM 51.3 °F 46.2 °F 83% 30.09 in 10.0 mi North 3.5 mph - N/A   Mostly Cloudy
12:55 AM 51.3 °F 46.4 °F 83% 30.07 in 10.0 mi NE 3.5 mph - N/A   Overcast
1:15 AM 51.4 °F 46.6 °F 83% 30.06 in 10.0 mi NE 4.6 mph - N/A   Overcast
1:55 AM 52.5 °F 47.1 °F 82% 30.04 in 10.0 mi NE 6.9 mph - N/A   Overcast
2:15 AM 52.2 °F 47.3 °F 83% 30.05 in 10.0 mi NNE 4.6 mph - N/A   Overcast
2:35 AM 51.3 °F 47.7 °F 87% 30.03 in 10.0 mi North 5.8 mph - 0.01 in Rain Rain
2:55 AM 50.4 °F 48.4 °F 93% 30.02 in 7.0 mi NNE 5.8 mph - 0.02 in Rain Rain
3:15 AM 50.0 °F 48.7 °F 95% 29.99 in 10.0 mi NNE 6.9 mph - 0.01 in Rain Rain
3:35 AM 50.0 °F 49.1 °F 97% 29.99 in 10.0 mi NE 5.8 mph - 0.02 in Rain Light Rain
3:55 AM 50.0 °F 49.5 °F 98% 29.97 in 10.0 mi NNE 4.6 mph - 0.02 in Rain Rain
4:15 AM 50.0 °F 50.0 °F 100% 29.95 in 7.0 mi NNE 6.9 mph - N/A   Light Drizzle
4:35 AM 50.4 °F 50.4 °F 100% 29.97 in 7.0 mi NNE 4.6 mph - 0.02 in Rain Rain
4:55 AM 50.2 °F 50.2 °F 100% 29.96 in 4.0 mi NNE 5.8 mph - 0.10 in Rain Heavy Rain
5:15 AM 50.0 °F 50.0 °F 100% 29.95 in 3.0 mi North 5.8 mph - 0.09 in Rain Heavy Rain
5:35 AM 49.6 °F 49.6 °F 100% 29.92 in 3.0 mi NNE 6.9 mph - 0.21 in Rain Heavy Rain
5:55 AM 49.5 °F 49.5 °F 100% 29.90 in 3.0 mi NNE 8.1 mph - 0.28 in Rain Heavy Rain
6:35 AM 50.0 °F 50.0 °F 100% 29.87 in 4.0 mi NNE 6.9 mph - 0.14 in Rain Heavy Rain
6:55 AM 50.0 °F 50.0 °F 100% 29.85 in 4.0 mi NNE 9.2 mph - 0.21 in Rain Heavy Rain
7:15 AM 50.2 °F 50.2 °F 100% 29.84 in 4.0 mi NE 9.2 mph - 0.08 in Rain Heavy Rain
7:35 AM 50.4 °F 50.4 °F 100% 29.83 in 3.0 mi NNE 9.2 mph - 0.23 in Rain Heavy Rain
7:55 AM 50.9 °F 50.9 °F 100% 29.83 in 5.0 mi NNE 9.2 mph - 0.35 in Rain Heavy Rain
8:15 AM 51.3 °F 51.3 °F 100% 29.82 in 3.0 mi NNE 8.1 mph - 0.08 in Rain Heavy Rain
8:35 AM 51.3 °F 51.3 °F 100% 29.81 in 4.0 mi NNE 6.9 mph - 0.15 in Rain Heavy Rain
8:55 AM 51.3 °F 51.3 °F 100% 29.80 in 4.0 mi NNE 9.2 mph - 0.22 in Rain Heavy Rain
9:15 AM 51.4 °F 51.4 °F 100% 29.78 in 5.0 mi NNE 5.8 mph - 0.04 in Rain Heavy Rain
9:35 AM 51.4 °F 51.4 °F 100% 29.77 in 1.8 mi NE 8.1 mph - 0.22 in Rain Heavy Rain
9:55 AM 51.4 °F 51.4 °F 100% 29.76 in 3.0 mi NNE 9.2 mph - 0.32 in Rain Heavy Rain
10:15 AM 51.4 °F 51.4 °F 100% 29.75 in 7.0 mi NNE 6.9 mph - 0.02 in Rain Rain
10:35 AM 51.4 °F 51.4 °F 100% 29.72 in 4.0 mi NE 8.1 mph - 0.09 in Rain Heavy Rain
10:55 AM 51.8 °F 51.8 °F 100% 29.70 in 4.0 mi NE 8.1 mph - 0.16 in Rain Heavy Rain
11:15 AM 52.0 °F 52.0 °F 100% 29.67 in 5.0 mi NE 8.1 mph - 0.05 in Rain Rain
11:35 AM 52.2 °F 52.2 °F 100% 29.63 in 1.8 mi NNE 8.1 mph - 0.25 in Rain Heavy Rain
11:55 AM 53.1 °F 53.1 °F 100% 29.61 in 5.0 mi NE 8.1 mph - 0.32 in Rain Rain
12:15 PM 53.8 °F 53.8 °F 100% 29.59 in 7.0 mi ENE 6.9 mph - 0.01 in Rain Light Rain
12:35 PM 54.9 °F 54.9 °F 100% 29.56 in 10.0 mi ENE 10.4 mph - 0.01 in Rain Light Rain
12:55 PM 56.1 °F 56.1 °F 100% 29.53 in 4.0 mi ENE 3.5 mph - 0.08 in Rain Heavy Rain
1:15 PM 57.2 °F 57.2 °F 100% 29.51 in 3.0 mi East 6.9 mph - 0.07 in Rain Rain
1:35 PM 58.5 °F 58.5 °F 100% 29.48 in 5.0 mi East 8.1 mph - 0.09 in Rain Rain
1:55 PM 60.3 °F 60.3 °F 100% 29.45 in 7.0 mi East 5.8 mph - 0.10 in Rain Light Rain
2:15 PM 62.6 °F 62.6 °F 100% 29.42 in 4.0 mi East 9.2 mph - 0.01 in Rain Heavy Rain
2:35 PM 63.9 °F 63.9 °F 100% 29.39 in 7.0 mi East 10.4 mph - 0.01 in Rain Rain
2:55 PM 65.1 °F 65.1 °F 100% 29.37 in 10.0 mi ESE 10.4 mph - 0.02 in   Overcast
3:15 PM 66.0 °F 66.0 °F 100% 29.35 in 10.0 mi ESE 13.8 mph 19.6 mph N/A Rain Rain
3:35 PM 67.1 °F 67.1 °F 100% 29.34 in 7.0 mi SE 10.4 mph 17.3 mph N/A   Drizzle
3:55 PM 67.1 °F 67.1 °F 100% 29.35 in 5.0 mi South 10.4 mph - 0.03 in Rain Light Rain
4:15 PM 61.3 °F 61.3 °F 100% 29.40 in 4.0 mi SSW 12.7 mph 20.7 mph 0.02 in Rain Heavy Rain
4:35 PM 56.5 °F 56.5 °F 100% 29.43 in 10.0 mi SSW 10.4 mph 16.1 mph 0.03 in Rain Rain
4:55 PM 54.5 °F 54.5 °F 100% 29.45 in 10.0 mi SSW 10.4 mph 16.1 mph 0.03 in Rain Light Rain
5:15 PM 53.8 °F 53.8 °F 100% 29.38 in 10.0 mi WSW 4.6 mph - N/A   Overcast
5:35 PM 53.6 °F 53.6 °F 100% 29.44 in 10.0 mi SSW 9.2 mph - N/A   Overcast
5:55 PM 53.8 °F 53.8 °F 100% 29.52 in 10.0 mi SSW 12.7 mph 19.6 mph N/A   Overcast
6:15 PM 52.9 °F 52.9 °F 100% 29.53 in 5.0 mi SW 15.0 mph 21.9 mph N/A Rain Light Rain
6:35 PM 52.5 °F 52.5 °F 100% 29.54 in 5.0 mi SW 11.5 mph 16.1 mph N/A   Drizzle
6:55 PM 52.2 °F 52.2 °F 100% 29.56 in 10.0 mi SW 12.7 mph - N/A   Overcast
7:15 PM 52.2 °F 51.8 °F 99% 29.57 in 10.0 mi SW 11.5 mph - N/A   Overcast
7:35 PM 52.0 °F 51.1 °F 97% 29.58 in 10.0 mi SW 11.5 mph 17.3 mph N/A   Overcast
7:55 PM 51.4 °F 50.9 °F 98% 29.60 in 5.0 mi SW 10.4 mph 17.3 mph 0.01 in Rain Rain
8:15 PM 50.9 °F 50.9 °F 100% 29.61 in 5.0 mi WSW 8.1 mph - 0.01 in Rain Light Rain
8:35 PM 50.9 °F 50.0 °F 97% 29.62 in 10.0 mi WSW 8.1 mph - 0.01 in   Overcast
8:55 PM 50.4 °F 49.3 °F 96% 29.63 in 10.0 mi WSW 8.1 mph - 0.02 in   Overcast
9:15 PM 50.0 °F 49.1 °F 97% 29.65 in 10.0 mi SW 9.2 mph - N/A   Overcast
9:35 PM 50.2 °F 49.3 °F 97% 29.67 in 10.0 mi SW 9.2 mph - N/A   Overcast
9:55 PM 50.4 °F 49.1 °F 95% 29.68 in 10.0 mi SW 9.2 mph - N/A   Overcast
10:15 PM 50.2 °F 48.9 °F 95% 29.70 in 10.0 mi SW 9.2 mph - N/A   Overcast
10:35 PM 50.0 °F 48.7 °F 95% 29.71 in 10.0 mi SW 6.9 mph - N/A   Overcast
10:55 PM 50.0 °F 48.4 °F 94% 29.72 in 10.0 mi SW 6.9 mph - N/A   Overcast
11:15 PM 50.0 °F 48.7 °F 95% 29.74 in 10.0 mi SW 5.8 mph - N/A   Overcast
11:35 PM 50.0 °F 49.1 °F 97% 29.75 in 10.0 mi SW 6.9 mph - N/A   Overcast
11:55 PM 50.2 °F 49.1 °F 96% 29.76 in 10.0 mi SW 8.1 mph - N/A   Overcast